Location: Couloutre
(47.4081°N, 3.2259°E)
Time: 06:58:55
(UTC+00:00)

FREGAT/IRIS - Pass Details

Date: 27 February 2020
Orbit: 335 x 336 km, 96.9° (Epoch: 31 March)

Event Time Altitude Azimuth Distance (km) Brightness Sun altitude
Exits shadow 19:27:49 40° 314° (NW) 519 3.6 -20.9°
Drops below altitude 10° 19:29:50 10° 340° (NNW) 1,291 5.6 -21.3°
Sets 19:31:46 0° 345° (NNW) 2,135 6.7 -21.6°
